This is the latest recevied weather packets stored in our database for station/object SR5MRF. If no packets are shown the sender has not sent any weather packets the latest 10 day(s).
| Time | Temp. | Humidity | Pressure | Rain* | Wind** | Luminosity | Snow |
|---|---|---|---|---|---|---|---|
| 1777028762 | 17.22° C | 39% | 1010.7 hPa | 0 mm | - | - | - |
| 1777028342 | 17.78° C | 39% | 1010.7 hPa | 0 mm | - | - | - |
| 1777027922 | 18.89° C | 37% | 1010.9 hPa | 0 mm | - | - | - |
| 1777027743 | 18.89° C | 37% | 1010.8 hPa | 0 mm | - | - | - |
| 1777027502 | 18.89° C | 37% | 1011.1 hPa | 0 mm | - | - | - |
| 1777027082 | 19.44° C | 36% | 1011.1 hPa | 0 mm | - | - | - |
| 1777026662 | 20.56° C | 36% | 1011 hPa | 0 mm | - | - | - |
| 1777026543 | 20.56° C | 36% | 1011 hPa | 0 mm | - | - | - |
| 1777026242 | 20.56° C | 36% | 1010.9 hPa | 0 mm | - | - | - |
| 1777025943 | 20.56° C | 36% | 1011 hPa | 0 mm | - | - | - |
| 1777025822 | 20.56° C | 36% | 1011.1 hPa | 0 mm | - | - | - |
| 1777025402 | 20.56° C | 35% | 1011.1 hPa | 0 mm | - | - | - |
| 1777025343 | 20.56° C | 35% | 1011.1 hPa | 0 mm | - | - | - |
| 1777024982 | 20.56° C | 35% | 1011.1 hPa | 0 mm | - | - | - |
| 1777024743 | 20.56° C | 35% | 1011.4 hPa | 0 mm | - | - | - |
| 1777024562 | 20.56° C | 35% | 1011.3 hPa | 0 mm | - | - | - |
| 1777024142 | 20.56° C | 36% | 1011.3 hPa | 0 mm | - | - | - |
| 1777023722 | 20.56° C | 36% | 1011.2 hPa | 0 mm | - | - | - |
| 1777023543 | 20.56° C | 36% | 1011.3 hPa | 0 mm | - | - | - |
| 1777023302 | 20.56° C | 36% | 1011.4 hPa | 0 mm | - | - | - |
| 1777022943 | 20° C | 36% | 1011.5 hPa | 0 mm | - | - | - |
| 1777022882 | 20° C | 36% | 1011.4 hPa | 0 mm | - | - | - |
| 1777022462 | 20° C | 37% | 1011.4 hPa | 0 mm | - | - | - |
| 1777022343 | 19.44° C | 37% | 1011.5 hPa | 0 mm | - | - | - |
| 1777022042 | 19.44° C | 37% | 1011.6 hPa | 0 mm | - | - | - |
* Rain latest hour (hover to see other rain measurements)
** Current wind speed in m/s (hover to see current wind gust speed)